User: anonymous   Login
Location: Bear Valley Community Church - Hurst
(32.8460°N, 97.1828°W)
Time: 01:46:16
(UTC+00:00)
Language:

CZ-4B DEB - Orbit

View from above orbital plane
View from above orbital plane
View from above satellite
View from above satellite

Ground track
Ground track

The orbit data is extracted from the following two-line orbital elements,

1 38184U 10051E   22279.48518819  .00007859  00000-0  12383-2 0  9995
2 38184  97.7047 106.3773 0151401  91.8046 270.0505 14.65239361635189
Epoch (UTC): 06 October 2022 11:38:40
Eccentricity: 0.0151401
inclination: 97.7047°
perigee height: 569 km
apogee height: 783 km
right ascension of ascending node: 106.3773°
argument of perigee: 91.8046°
revolutions per day: 14.65239361
mean anomaly at epoch: 270.0505°
orbit number at epoch: 63518

The dashed part of the orbit path shows where the satellite is in the earth's shadow,  

DLR